Location: ?ejeti?ky
(50.4060°N, 14.9016°E)
Time: 23:08:15
(UTC+00:00)

ERS-2 - Pass Details

Date: 07 June 2020
Orbit: 493 x 499 km, 98.5° (Epoch: 11 July)

Event Time Altitude Azimuth Distance (km) Brightness Sun altitude
Rises 01:17:20 0° 142° (SE) 2,584 5.5 -10.7°
Reaches altitude 10° 01:19:30 10° 134° (SE) 1,705 4.7 -10.5°
Maximum altitude 01:22:52 35° 67° (ENE) 824 3.8 -10.2°
Drops below altitude 10° 01:26:15 10° 1° (N) 1,716 5.8 -9.9°
Sets 01:28:27 0° 352° (N) 2,604 6.6 -9.7°
